Погода в Нелькане

Погода в Нелькане : погода сейчас, прогноз погоды и архив. Всё, что Вы хотите узнать о погоде в Нелькане!

Поиск расширенной информации на нашем сайте:

Другие новости

Новости СМИ2

Главная страница сайта

Новости сайта

03.07.2017

Напоминаем, что на нашем специализированном сайте Метеоцентр.Азия вы можете получить высокодетализированные автоматические прогнозы погоды по пунктам России, СНГ и мира в авиационном формате (включающие направление и скорость ветра, видимость, явления погоды, количество и форму облачности, нижнюю и верхнюю границу облачности).

Рекомендуем: полировка кузова автомобиля

Погода в Нелькане - сегодня

Время (UTC), дата Ветер
(°,м/с) 
Видим.   Явления Облачность Т
(°С)
Тd
(°С)
f(%) Тe
(°С)
Pmin
(гПа)
dP
(гПа)
Po
(мм)
O2
(г/м3)
Тmin Tmax R s Состояние
почвы
12 18.05.18 290 (З) 20000 м    8/0 средняя 
[Ac trans]
+10.4 -0.6 46 +12  1007.3  1.8  727  282           
15 18.05.18 200 (Ю) 20000 м    3/0 средняя 
[Ac trans]
+4.9 -1 66 +6  1009.6  1.5  728  288           
18 18.05.18 250 (З) 20000 м    3/0 средняя 
[Ac trans]
+3.5 -1.5 70 +3  1012.2  2.3  730  291           
03 19.05.18 200 (Ю) 20000 м    3/0 верхняя 
[Ci sp]
+17 +4.6 44 +17  1009  -2.6  729  276           
06 19.05.18 230 (ЮЗ) 20000 м    10/0 средняя, верхняя 
[Ac trans|Cs]
+18.5 +5.4 42 +19  1007  -1.6  728  274           
09 19.05.18 230 (ЮЗ) 2{11}  20000 м  слаб. дождь  10/10 1000 м 
[Sc]
+17 +7.5 54 +18  1007.9  0.5  728  275    +19.3  0.0     
12 19.05.18 230 (ЮЗ) 20000 м  {дождь}  8/0 средняя 
[Ac trans]
+13.4 +6.6 63 +15  1007.7  -0.5  728  278           
15 19.05.18 тихо ()   20000 м    3/0 верхняя 
[Ci sp]
+7 +2.9 75 +7  1008.6  728  285           
18 19.05.18 070 (В) 20000 м    10/0 средняя 
[As op]
+4.1 +0.1 75 +5  1008.2  -0.8  727  289           
03 20.05.18 050 (СВ) 20000 м  {дождь}  10/0 средняя 
[As op]
+8.4 +5.3 81 +9  1009.2  1.6  728  284           
06 20.05.18 320 (СЗ) 20000 м  {дождь}  10/0 средняя 
[As op]
+8.2 +5.1 81 +9  1013.3  731  285           
12 20.05.18 270 (З) 20000 м    6/0 верхняя 
[Ci sp]
+7.2 +1.5 67 +8  1017  1.3  734  288           
15 20.05.18 270 (З) 20000 м    3/0 верхняя 
[Ci sp]
+2.2 -1.8 75 +3  1018.6  0.8  735  294           
18 20.05.18 230 (ЮЗ) 20000 м    6/0 средняя, верхняя 
[Ac trans|Ci sp]
+0.6 -2.7 79 1020.4  1.5  736  296           
03 21.05.18 250 (З) 20000 м    6/5 1000 м верхняя 
[Cu med, cong|Ci sp]
+14.9 -0.7 34 +16  1016.1  -2.3  734  280           
06 21.05.18 250 (З) 20000 м    8/0 верхняя 
[Ci sp]
+16.7 +1 35 +18  1012.5  -1.2  732  278           
12 21.05.18 320 (СЗ) 20000 м    10/0 верхняя 
[Cs]
+11.4 +0.2 46 +13  1009.6  -1.5  729  282           
15 21.05.18 320 (СЗ) 20000 м    4/0 верхняя 
[Ci sp]
+6.8 -1.1 57 +8  1008.4  -1.8  728  286           
18 21.05.18 тихо ()   20000 м    10/0 средняя 
[As op]
+3.5 -1.2 71 +4  1008  -0.8  727  289           
03 22.05.18 020 (С) 20000 м    9/0 средняя 
[Ac trans]
+16.6 +2.8 40 +18  1000.9  -2.2  723  274           
06 22.05.18 200 (Ю) 20000 м    10/0 средняя 
[As op]
+17.8 +3.5 39 +19  999.4  -1.2  722  273           
12 22.05.18 020 (С) 20000 м    10/0 средняя, верхняя 
[Ac trans|Cs]
+11 +5.1 67 +12  1000.2  0.2  722  279           
15 22.05.18 тихо ()   20000 м    8/0 средняя, верхняя 
[Ac trans|Ci sp]
+6.8 +2.7 75 +7  1000.3  -0.4  722  283           
18 22.05.18 050 (СВ) 20000 м    9/0 средняя 
[Ac trans]
+5.4 +1.6 76 +6  1000.7  0.1  722  285           
03 23.05.18 160 (Ю) 20000 м    4/0 средняя 
[Ac trans]
+20.2 +2.7 31 +20  998.9  -0.6  722  270           
Время (UTC), дата Ветер
(°,м/с) 
Видим.   Явления Облачность Т
(°С)
Тd
(°С)
f(%) Тe
(°С)
Pmin
(гПа)
dP
(гПа)
Po
(мм)
O2
(г/м3)
Тmin Tmax R s Состояние
почвы

Для получения пояснительной информации подведите курсор к названию столбца.

ПОГОДА в Нелькане - архив

Всё, что Вы хотите узнать о погоде в Нелькане - удобно и подробно!

Выберите нужную дату (начиная с 1 января 2015* года) и нажмите кнопку "Найти".
Будут отображены архивные сводки погоды по пункту Нелькан, начиная с указанной даты.


Отображать данные в формате CSV (для использования в таблицах Excel)


Внимание! Наш архив погоды предназначен исключительно для личного некоммерческого использования в познавательных целях. Если Вам необходимы официальные справки о состоянии погоды (для производственных, юридических, коммерческих и т.п. целей), обращайтесь в органы Росгидромета.

*Примечание: данная дата относится к архиву по метеостанциям СССР (Россия, СНГ, Балтия).
Архив по метеостанциям Зарубежной Европы и Азии (кроме Китая) хранится 10 дней, по другим регионам земного шара (Китай, Африка, Америка, Австралия, Океания) - 1 день.

Нелькан - район местоположения метеостанции


Название, широта, долгота, высота метеостанции:
Нелькан 57.7°ш. 136.2°д. 305 м над ур. моря [Российская Федерация]

Дополнительная информация

В oтличие oт бoльшинства пoгoдных сайтoв мы публикуем пoдрoбную метеoинфoрмацию в детальнoм прoфессиoнальнoм фoрмате.

Характеристики температуры и влажнoсти вoздуха измеряются на высoте 2 м в тени вдали oт зданий и деревьев.
Скoрoсть ветра измеряется на высoте 10 м (на урoвне рoста челoвека скoрoсть ветра ниже в 1.5-2 раза). Если метеoстанция нахoдится в гoрoде или в лесу, тo скoрoсть ветра занижена на 2-4 м/с пo сравнению с oткрытым местoм. Скoрoсть ветра над акватoриями крупных рек и oзёр, а также на вершинах хoлмoв на 2-5 м/с выше, чем в oбычных услoвиях.
Атмoсфернoе давление в разных тoчках местнoсти мoжет значительнo oтличаться oт давления на метеoстанции, в зависимoсти oт услoвий рельефа (при пoдъёме на 10 м давление пoнижается примернo на 1 мм рт.ст.).